Waarnemingen

Advertentie
Mijn weer
St-Hubert, België (6476): temperatuur & dauwpunt: 06.12.2018 15:00:00 - 12.12.2018 15:00:00 (CET)St-Hubert, België (6476): windsnelheid & windstoten: 06.12.2018 15:00:00 - 12.12.2018 15:00:00 (CET)St-Hubert, België (6476): windrichting: 06.12.2018 15:00:00 - 12.12.2018 15:00:00 (CET)St-Hubert, België (6476): luchtdruk: 06.12.2018 15:00:00 - 12.12.2018 15:00:00 (CET)St-Hubert, België (6476): zicht: 06.12.2018 15:00:00 - 12.12.2018 15:00:00 (CET)
Datum & Tijd tt [°C] td [°C] ff [km/u] ff [kn] fx [km/u] fx [kn] dd ppp [hPa] vv [km]
12.12.2018 15:00:00 -1,0 -2,2 14 8 25 14 O 1024,8 4,6
12.12.2018 14:00:00 -1,3 -2,7 11 6 25 14 ONO 1025,1 4,3
12.12.2018 13:00:00 -1,9 -3,0 18 10 - - O 1025,8 2,4
12.12.2018 12:00:00 -2,3 -3,3 18 10 22 12 O 1026,6 0,5
12.12.2018 11:00:00 -2,7 -3,2 11 6 14 8 NO 1027,0 0,2
12.12.2018 10:00:00 -2,0 -3,0 7 4 - - ONO 1026,6 4,8
12.12.2018 09:00:00 -3,3 -3,7 7 4 11 6 O 1026,8 0,3
12.12.2018 08:00:00 -2,2 -3,0 7 4 11 6 ONO 1026,3 4,0
12.12.2018 07:00:00 -1,7 -3,0 4 2 - - NO 1026,0 -
12.12.2018 06:00:00 -1,9 -2,5 7 4 7 4 ONO 1026,1 -
12.12.2018 05:00:00 -1,4 -2,4 7 4 7 4 ONO 1025,9 4,3
12.12.2018 04:00:00 -1,4 -1,9 4 2 - - ONO 1026,2 3,8
12.12.2018 03:00:00 -0,3 -1,2 4 2 7 4 ONO 1025,9 4,5
12.12.2018 02:00:00 0,1 -1,5 4 2 11 6 NO 1025,6 4,3
12.12.2018 01:00:00 0,6 -1,8 7 4 - - NNW 1025,8 15
12.12.2018 00:00:00 0,9 -2,3 7 4 11 6 NNW 1025,8 24
11.12.2018 23:00:00 -0,9 -1,7 4 2 7 4 NO 1026,4 15
11.12.2018 22:00:00 -0,1 -1,7 4 2 - - W 1026,1 19
11.12.2018 21:00:00 0,5 -1,3 4 2 11 6 WNW 1026,2 24
11.12.2018 20:00:00 0,4 -1,8 7 4 11 6 NW 1026,2 29
11.12.2018 19:00:00 0,6 -1,0 7 4 - - WNW 1025,9 29
11.12.2018 18:00:00 1,5 -2,1 4 2 7 4 NW 1025,7 35
11.12.2018 17:00:00 1,5 -2,2 4 2 11 6 NNW 1025,6 30
11.12.2018 16:00:00 2,2 -1,7 7 4 - - NNW 1025,3 30
11.12.2018 15:00:00 2,3 -1,9 7 4 18 10 WNW 1025,4 35
11.12.2018 14:00:00 2,5 -1,7 14 8 18 10 NW 1025,7 27
11.12.2018 13:00:00 2,0 -0,6 11 6 - - W 1026,1 24
11.12.2018 12:00:00 2,0 -0,9 11 6 18 10 NW 1026,5 18
11.12.2018 11:00:00 1,7 -0,6 11 6 22 12 NNW 1026,5 13
11.12.2018 10:00:00 0,9 -0,8 11 6 - - NW 1026,5 11
11.12.2018 09:00:00 0,2 -1,4 11 6 14 8 NW 1026,6 -
11.12.2018 08:00:00 0,0 -1,2 7 4 22 12 NNW 1026,5 5
11.12.2018 07:00:00 0,3 -1,0 11 6 - - NW 1026,5 -
11.12.2018 06:00:00 0,7 -0,3 11 6 22 12 WNW 1026,7 4,5
11.12.2018 05:00:00 0,6 -0,5 11 6 22 12 NW 1026,6 4,0
11.12.2018 04:00:00 0,7 0,0 11 6 - - NW 1026,7 2,8
11.12.2018 03:00:00 0,8 0,0 11 6 22 12 NW 1026,9 3,3
11.12.2018 02:00:00 0,9 0,1 11 6 25 14 NW 1026,8 1,7
11.12.2018 01:00:00 0,9 0,2 11 6 - - NW 1026,9 3,4
11.12.2018 00:00:00 0,9 0,3 7 4 22 12 NW 1026,8 1,6
10.12.2018 23:00:00 0,9 0,0 14 8 22 12 NW 1026,8 7
10.12.2018 22:00:00 1,1 0,2 11 6 - - NW 1026,7 -
10.12.2018 21:00:00 0,9 -0,1 14 8 29 16 NNW 1026,8 4,0
10.12.2018 20:00:00 1,8 0,6 18 10 36 19 NW 1026,2 12
10.12.2018 19:00:00 2,0 1,0 25 14 - - NW 1026,0 11
10.12.2018 18:00:00 2,1 1,0 22 12 40 21 NW 1025,8 20
10.12.2018 17:00:00 2,2 1,2 25 14 40 21 NW 1025,7 15
10.12.2018 16:00:00 2,5 1,6 18 10 - - WNW 1025,0 11
10.12.2018 15:00:00 3,0 1,4 22 12 36 19 WNW 1024,9 30
10.12.2018 14:00:00 2,6 1,2 22 12 36 19 WNW 1025,1 14
10.12.2018 13:00:00 3,1 1,6 22 12 - - WNW 1025,1 19
10.12.2018 12:00:00 3,1 1,8 22 12 43 23 WNW 1025,2 13
10.12.2018 11:00:00 2,7 1,7 22 12 40 21 NW 1025,2 9
10.12.2018 10:00:00 2,3 1,6 22 12 - - WNW 1024,9 4,1
10.12.2018 09:00:00 1,9 1,1 18 10 32 18 WNW 1024,5 11
10.12.2018 08:00:00 1,9 1,0 22 12 32 18 WNW 1024,0 -
10.12.2018 07:00:00 2,0 1,1 22 12 - - WNW 1023,6 12
10.12.2018 06:00:00 2,0 1,2 22 12 40 21 WNW 1022,9 -
10.12.2018 05:00:00 2,3 1,6 25 14 36 19 WNW 1022,3 3,6
10.12.2018 04:00:00 2,3 1,6 22 12 - - WNW 1022,1 2,6
10.12.2018 03:00:00 2,3 1,6 22 12 43 23 WNW 1021,6 3,0
10.12.2018 02:00:00 2,0 1,1 22 12 40 21 WNW 1020,9 13
10.12.2018 01:00:00 2,1 1,1 25 14 - - WNW 1020,3 16
10.12.2018 00:00:00 2,2 1,1 22 12 40 21 WNW 1019,3 19
09.12.2018 23:00:00 2,7 1,4 22 12 40 21 WNW 1018,5 16
09.12.2018 22:00:00 2,5 1,3 25 14 - - WNW 1017,6 25
09.12.2018 21:00:00 3,4 2,1 25 14 50 27 WNW 1016,4 17
09.12.2018 20:00:00 3,6 2,8 29 16 50 27 WNW 1015,2 14
09.12.2018 19:00:00 3,9 3,1 22 12 - - WNW 1013,5 13
09.12.2018 18:00:00 4,2 3,6 25 14 47 25 WNW 1011,8 -
09.12.2018 17:00:00 4,3 3,5 22 12 47 25 NW 1010,1 13
09.12.2018 16:00:00 4,4 3,7 22 12 - - NW 1008,3 7
09.12.2018 15:00:00 4,8 4,0 25 14 54 29 WNW 1006,5 17
09.12.2018 14:00:00 4,4 3,5 29 16 50 27 WNW 1005,5 22
09.12.2018 13:00:00 5,2 4,2 29 16 - - W 1004,1 12
09.12.2018 12:00:00 5,0 4,1 29 16 47 25 W 1004,4 16
09.12.2018 11:00:00 4,7 4,0 29 16 54 29 W 1004,1 6
09.12.2018 10:00:00 4,4 3,5 29 16 - - W 1003,8 14
09.12.2018 09:00:00 4,1 3,3 29 16 61 33 W 1004,0 7
09.12.2018 08:00:00 4,1 3,1 36 19 54 29 W 1003,3 10
09.12.2018 07:00:00 4,7 3,4 32 18 - - W 1002,7 9
09.12.2018 06:00:00 4,7 2,9 36 19 58 31 W 1002,3 16
09.12.2018 05:00:00 4,6 3,2 36 19 72 39 W 1001,9 14
09.12.2018 04:00:00 4,6 2,7 43 23 - - W 1001,7 15
09.12.2018 03:00:00 5,4 3,8 36 19 65 35 W 1001,0 10
09.12.2018 02:00:00 5,5 4,3 36 19 58 31 W 1000,9 11
09.12.2018 01:00:00 5,8 4,6 40 21 - - W 1000,9 11
09.12.2018 00:00:00 6,0 4,4 40 21 61 33 W 1000,8 -
08.12.2018 23:00:00 6,1 4,8 36 19 68 37 W 1001,2 5
08.12.2018 22:00:00 7,0 5,9 40 21 - - W 1001,3 21
08.12.2018 21:00:00 6,6 6,1 36 19 58 31 WZW 1001,8 3,6
08.12.2018 20:00:00 6,2 5,5 36 19 54 29 WZW 1003,5 3,0
08.12.2018 19:00:00 5,6 4,9 36 19 - - WZW 1005,4 3,7
08.12.2018 18:00:00 5,3 4,7 36 19 54 29 WZW 1006,9 3,1
08.12.2018 17:00:00 5,2 4,5 32 18 54 29 WZW 1008,0 6
08.12.2018 16:00:00 5,3 4,2 29 16 - - WZW 1008,8 11
08.12.2018 15:00:00 5,4 3,9 36 19 58 31 W 1008,8 13
08.12.2018 14:00:00 5,2 4,0 32 18 76 41 W 1009,4 21
08.12.2018 13:00:00 4,8 3,7 29 16 - - W 1009,4 22
08.12.2018 12:00:00 4,3 3,6 29 16 54 29 W 1009,6 7
08.12.2018 11:00:00 4,0 3,3 32 18 47 25 W 1009,7 21
08.12.2018 10:00:00 3,8 3,0 29 16 - - W 1009,7 9
08.12.2018 09:00:00 3,4 2,6 40 21 65 35 W 1009,6 6
08.12.2018 08:00:00 2,8 2,1 29 16 54 29 WZW 1009,9 3,6
08.12.2018 07:00:00 2,6 1,9 36 19 - - WZW 1009,9 4,8
08.12.2018 06:00:00 2,8 2,1 36 19 54 29 WZW 1010,2 6
08.12.2018 05:00:00 2,9 2,1 29 16 54 29 WZW 1010,6 6
08.12.2018 04:00:00 2,8 2,1 29 16 - - WZW 1011,0 4,4
08.12.2018 03:00:00 2,8 1,9 25 14 43 23 WZW 1011,5 13
08.12.2018 02:00:00 2,7 1,8 32 18 50 27 WZW 1011,3 18
08.12.2018 01:00:00 2,9 1,9 29 16 - - WZW 1011,1 18
08.12.2018 00:00:00 3,3 1,9 29 16 50 27 W 1010,9 19
07.12.2018 23:00:00 3,6 2,2 29 16 50 27 W 1010,1 16
07.12.2018 22:00:00 3,8 2,6 25 14 - - W 1009,4 14
07.12.2018 21:00:00 4,1 3,0 29 16 50 27 W 1008,0 13
07.12.2018 20:00:00 4,1 3,2 25 14 54 29 W 1006,4 15
07.12.2018 19:00:00 4,3 3,6 25 14 - - W 1005,0 19
07.12.2018 18:00:00 3,8 3,1 32 18 76 41 W 1004,4 7
07.12.2018 17:00:00 7,0 6,5 32 18 54 29 ZW 1001,7 5
07.12.2018 16:00:00 6,9 6,0 36 19 - - ZW 1003,2 6
07.12.2018 15:00:00 6,9 6,1 36 19 54 29 ZW 1004,8 2,1
07.12.2018 14:00:00 6,9 6,1 36 19 68 37 ZW 1006,3 3,8
07.12.2018 13:00:00 7,3 6,6 32 18 - - ZW 1007,9 2,8
07.12.2018 12:00:00 7,4 6,6 32 18 54 29 ZW 1010,2 3,3
07.12.2018 11:00:00 7,5 6,8 36 19 58 31 ZW 1011,3 3,2
07.12.2018 10:00:00 7,4 6,8 25 14 - - ZW 1012,3 2,7
07.12.2018 09:00:00 7,4 6,8 29 16 54 29 ZW 1013,2 2,6
07.12.2018 08:00:00 7,4 6,9 32 18 50 27 ZW 1013,6 0,2
07.12.2018 07:00:00 7,4 6,9 29 16 - - ZW 1014,5 1,8
07.12.2018 06:00:00 7,4 7,0 29 16 47 25 ZW 1015,1 0,1
07.12.2018 05:00:00 7,7 7,3 29 16 50 27 WZW 1015,7 0,1
07.12.2018 04:00:00 7,8 7,0 22 12 - - WZW 1016,7 5
07.12.2018 03:00:00 8,1 7,1 25 14 40 21 WZW 1017,5 -
07.12.2018 02:00:00 8,1 7,1 25 14 40 21 WZW 1018,0 -
07.12.2018 01:00:00 8,3 7,5 25 14 - - W 1018,5 7
07.12.2018 00:00:00 8,7 8,2 29 16 50 27 WZW 1018,5 0,6
06.12.2018 23:00:00 8,7 8,1 29 16 43 23 W 1018,8 2,8
06.12.2018 22:00:00 8,7 8,1 25 14 - - WZW 1019,0 -
06.12.2018 21:00:00 8,7 8,2 25 14 40 21 WZW 1019,2 0,5
06.12.2018 20:00:00 8,7 8,1 25 14 40 21 WZW 1019,3 2,5
06.12.2018 19:00:00 8,7 8,1 25 14 - - WZW 1019,3 2,4
06.12.2018 18:00:00 8,7 8,1 29 16 43 23 WZW 1019,5 5
06.12.2018 17:00:00 8,6 7,9 25 14 40 21 W 1019,6 5
06.12.2018 16:00:00 8,6 8,0 22 12 - - WZW 1019,2 3,3
06.12.2018 15:00:00 8,6 7,7 22 12 32 18 WZW 1019,0 -

tt = temperatuur
td = dauwpunt
ff = windsnelheid
fx = windstoten
dd = windrichting
ppp = luchtdruk
vv = zicht

Weerstations in de omgeving